Time,TemperatureF,DewpointF,PressureIn,WindDirection,WindDirectionDegrees,WindSpeedMPH,WindSpeedGustMPH,Humidity,HourlyPrecipIn,Conditions,Clouds,dailyrainin,SoftwareType,DateUTC
2013-07-11 00:03:00,58.7,55.0,29.95,North,5,0.0,-999.0,86,-99.99,,,0.00,weatherlink.com 1.10,2013-07-11 05:03:00,
2013-07-11 00:17:00,58.3,54.0,29.95,North,5,0.0,-999.0,86,-99.99,,,0.00,weatherlink.com 1.10,2013-07-11 05:17:00,
2013-07-11 00:32:00,58.0,54.0,29.95,North,5,0.0,-999.0,87,-99.99,,,0.00,weatherlink.com 1.10,2013-07-11 05:32:00,
2013-07-11 00:47:00,57.6,54.0,29.95,North,5,0.0,-999.0,87,-99.99,,,0.00,weatherlink.com 1.10,2013-07-11 05:47:00,
2013-07-11 01:02:00,57.3,54.0,29.95,North,5,0.0,-999.0,87,-99.99,,,0.00,weatherlink.com 1.10,2013-07-11 06:02:00,
2013-07-11 01:18:00,57.0,54.0,29.96,North,5,0.0,-999.0,88,-99.99,,,0.00,weatherlink.com 1.10,2013-07-11 06:18:00,
2013-07-11 01:33:00,56.9,53.0,29.96,North,5,0.0,-999.0,88,-99.99,,,0.00,weatherlink.com 1.10,2013-07-11 06:33:00,
2013-07-11 01:48:00,56.6,54.0,29.96,North,5,0.0,-999.0,89,-99.99,,,0.00,weatherlink.com 1.10,2013-07-11 06:48:00,
2013-07-11 02:03:00,56.5,53.0,29.97,North,5,0.0,-999.0,89,-99.99,,,0.00,weatherlink.com 1.10,2013-07-11 07:03:00,
2013-07-11 02:18:00,56.3,54.0,29.97,North,5,0.0,-999.0,90,-99.99,,,0.00,weatherlink.com 1.10,2013-07-11 07:18:00,
2013-07-11 02:33:00,56.2,54.0,29.97,North,5,0.0,-999.0,91,-99.99,,,0.00,weatherlink.com 1.10,2013-07-11 07:33:00,
2013-07-11 02:48:00,56.2,54.0,29.97,North,5,0.0,-999.0,91,-99.99,,,0.00,weatherlink.com 1.10,2013-07-11 07:48:00,
2013-07-11 03:03:00,55.9,53.0,29.97,North,5,0.0,-999.0,91,-99.99,,,0.00,weatherlink.com 1.10,2013-07-11 08:03:00,
2013-07-11 03:18:00,55.7,53.0,29.98,North,5,0.0,-999.0,91,-99.99,,,0.00,weatherlink.com 1.10,2013-07-11 08:18:00,
2013-07-11 03:33:00,55.4,53.0,29.98,North,5,0.0,-999.0,91,-99.99,,,0.00,weatherlink.com 1.10,2013-07-11 08:33:00,
2013-07-11 03:48:00,55.3,53.0,29.99,North,5,0.0,-999.0,92,-99.99,,,0.00,weatherlink.com 1.10,2013-07-11 08:48:00,
2013-07-11 04:03:00,55.1,53.0,29.99,North,5,0.0,-999.0,92,-99.99,,,0.00,weatherlink.com 1.10,2013-07-11 09:03:00,
2013-07-11 04:19:00,54.8,53.0,29.98,North,5,0.0,-999.0,92,-99.99,,,0.00,weatherlink.com 1.10,2013-07-11 09:19:00,
2013-07-11 04:34:00,54.5,52.0,30.00,North,5,0.0,-999.0,92,-99.99,,,0.00,weatherlink.com 1.10,2013-07-11 09:34:00,
2013-07-11 04:49:00,54.4,52.0,30.00,North,5,0.0,-999.0,92,-99.99,,,0.00,weatherlink.com 1.10,2013-07-11 09:49:00,
2013-07-11 05:04:00,54.1,52.0,30.00,North,5,0.0,-999.0,92,-99.99,,,0.00,weatherlink.com 1.10,2013-07-11 10:04:00,
2013-07-11 05:19:00,53.8,52.0,30.00,North,5,0.0,-999.0,92,-99.99,,,0.00,weatherlink.com 1.10,2013-07-11 10:19:00,
2013-07-11 05:34:00,53.6,51.0,30.00,North,5,0.0,-999.0,92,-99.99,,,0.00,weatherlink.com 1.10,2013-07-11 10:34:00,
2013-07-11 05:49:00,53.3,51.0,30.01,North,5,0.0,-999.0,92,-99.99,,,0.00,weatherlink.com 1.10,2013-07-11 10:49:00,
2013-07-11 06:04:00,53.2,51.0,30.02,North,5,0.0,-999.0,92,-99.99,,,0.00,weatherlink.com 1.10,2013-07-11 11:04:00,
2013-07-11 06:19:00,53.1,51.0,30.02,North,5,0.0,-999.0,93,-99.99,,,0.00,weatherlink.com 1.10,2013-07-11 11:19:00,
2013-07-11 06:34:00,53.3,52.0,30.02,North,5,0.0,-999.0,94,-99.99,,,0.00,weatherlink.com 1.10,2013-07-11 11:34:00,
2013-07-11 06:49:00,53.5,52.0,30.02,North,5,0.0,-999.0,94,-99.99,,,0.00,weatherlink.com 1.10,2013-07-11 11:49:00,
2013-07-11 07:04:00,54.1,53.0,30.02,North,5,0.0,-999.0,96,-99.99,,,0.00,weatherlink.com 1.10,2013-07-11 12:04:00,
2013-07-11 07:19:00,55.0,54.0,30.02,North,5,0.0,-999.0,96,-99.99,,,0.00,weatherlink.com 1.10,2013-07-11 12:19:00,
2013-07-11 07:34:00,55.7,55.0,30.03,North,5,0.0,-999.0,97,-99.99,,,0.00,weatherlink.com 1.10,2013-07-11 12:34:00,
2013-07-11 07:49:00,57.0,57.0,30.03,North,5,0.0,-999.0,98,-99.99,,,0.00,weatherlink.com 1.10,2013-07-11 12:49:00,
2013-07-11 08:04:00,58.3,58.0,30.03,North,5,0.0,-999.0,98,-99.99,,,0.00,weatherlink.com 1.10,2013-07-11 13:04:00,
2013-07-11 08:19:00,59.5,59.0,30.04,North,5,0.0,-999.0,98,-99.99,,,0.00,weatherlink.com 1.10,2013-07-11 13:19:00,
2013-07-11 08:34:00,60.4,60.0,30.04,North,5,0.0,-999.0,98,-99.99,,,0.00,weatherlink.com 1.10,2013-07-11 13:34:00,
2013-07-11 08:49:00,60.9,60.0,30.04,North,5,0.0,-999.0,98,-99.99,,,0.00,weatherlink.com 1.10,2013-07-11 13:49:00,
2013-07-11 09:04:00,61.5,61.0,30.03,North,5,0.0,-999.0,98,-99.99,,,0.00,weatherlink.com 1.10,2013-07-11 14:04:00,
2013-07-11 09:19:00,62.1,62.0,30.04,North,5,0.0,-999.0,98,-99.99,,,0.00,weatherlink.com 1.10,2013-07-11 14:19:00,
2013-07-11 09:49:00,63.5,61.0,30.03,North,5,0.0,-999.0,92,-99.99,,,0.00,weatherlink.com 1.10,2013-07-11 14:49:00,
2013-07-11 10:04:00,65.3,58.0,30.03,North,5,0.0,-999.0,78,-99.99,,,0.00,weatherlink.com 1.10,2013-07-11 15:04:00,
2013-07-11 10:19:00,67.3,58.0,30.03,North,360,0.0,-999.0,71,-99.99,,,0.00,weatherlink.com 1.10,2013-07-11 15:19:00,
2013-07-11 10:34:00,69.3,58.0,30.03,WSW,243,0.0,-999.0,68,-99.99,,,0.00,weatherlink.com 1.10,2013-07-11 15:34:00,
2013-07-11 10:49:00,71.1,57.0,30.03,SW,232,2.0,-999.0,61,-99.99,,,0.00,weatherlink.com 1.10,2013-07-11 15:49:00,
2013-07-11 11:04:00,73.5,57.0,30.02,North,5,0.0,-999.0,56,-99.99,,,0.00,weatherlink.com 1.10,2013-07-11 16:04:00,
2013-07-11 11:19:00,76.3,58.0,30.02,SW,222,0.0,-999.0,54,-99.99,,,0.00,weatherlink.com 1.10,2013-07-11 16:19:00,
2013-07-11 11:35:00,78.8,60.0,30.01,SW,222,0.0,-999.0,53,-99.99,,,0.00,weatherlink.com 1.10,2013-07-11 16:35:00,
2013-07-11 11:50:00,80.5,59.0,30.01,NNE,21,0.0,-999.0,48,-99.99,,,0.00,weatherlink.com 1.10,2013-07-11 16:50:00,
2013-07-11 12:05:00,81.6,59.0,30.01,West,279,1.0,-999.0,46,-99.99,,,0.00,weatherlink.com 1.10,2013-07-11 17:05:00,
2013-07-11 12:20:00,82.6,57.0,30.01,SSW,196,0.0,-999.0,41,-99.99,,,0.00,weatherlink.com 1.10,2013-07-11 17:20:00,
2013-07-11 12:35:00,83.4,56.0,30.01,South,181,1.0,-999.0,39,-99.99,,,0.00,weatherlink.com 1.10,2013-07-11 17:35:00,
2013-07-11 12:50:00,84.3,57.0,29.99,SW,217,0.0,-999.0,40,-99.99,,,0.00,weatherlink.com 1.10,2013-07-11 17:50:00,
2013-07-11 13:05:00,85.1,55.0,29.99,SE,126,1.0,-999.0,35,-99.99,,,0.00,weatherlink.com 1.10,2013-07-11 18:05:00,
2013-07-11 13:35:00,86.5,53.0,29.99,South,190,0.0,-999.0,32,-99.99,,,0.00,weatherlink.com 1.10,2013-07-11 18:35:00,
2013-07-11 13:50:00,87.0,54.0,29.99,South,173,3.0,-999.0,32,-99.99,,,0.00,weatherlink.com 1.10,2013-07-11 18:50:00,
2013-07-11 14:05:00,87.6,55.0,29.98,South,186,0.0,-999.0,33,-99.99,,,0.00,weatherlink.com 1.10,2013-07-11 19:05:00,
2013-07-11 14:35:00,87.6,56.0,29.98,NNE,14,0.0,-999.0,34,-99.99,,,0.00,weatherlink.com 1.10,2013-07-11 19:35:00,
2013-07-11 14:50:00,87.4,53.0,29.98,SSW,213,1.0,-999.0,31,-99.99,,,0.00,weatherlink.com 1.10,2013-07-11 19:50:00,
2013-07-11 15:05:00,87.8,58.0,29.97,SSW,205,0.0,-999.0,36,-99.99,,,0.00,weatherlink.com 1.10,2013-07-11 20:05:00,
2013-07-11 15:35:00,87.8,53.0,29.97,SSW,202,0.0,-999.0,30,-99.99,,,0.00,weatherlink.com 1.10,2013-07-11 20:35:00,
2013-07-11 15:51:00,88.4,54.0,29.96,WSW,257,0.0,-999.0,31,-99.99,,,0.00,weatherlink.com 1.10,2013-07-11 20:51:00,
2013-07-11 16:07:00,88.4,57.0,29.96,SSW,204,3.0,-999.0,34,-99.99,,,0.00,weatherlink.com 1.10,2013-07-11 21:07:00,
2013-07-11 16:21:00,88.0,54.0,29.96,South,188,1.0,-999.0,31,-99.99,,,0.00,weatherlink.com 1.10,2013-07-11 21:21:00,
2013-07-11 16:51:00,87.4,59.0,29.95,SSW,205,0.0,-999.0,38,-99.99,,,0.00,weatherlink.com 1.10,2013-07-11 21:51:00,
2013-07-11 17:07:00,87.4,56.0,29.95,WSW,238,2.0,-999.0,34,-99.99,,,0.00,weatherlink.com 1.10,2013-07-11 22:07:00,
2013-07-11 17:21:00,86.7,57.0,29.95,South,170,1.0,-999.0,37,-99.99,,,0.00,weatherlink.com 1.10,2013-07-11 22:21:00,
2013-07-11 17:36:00,85.5,61.0,29.95,SSE,159,0.0,-999.0,44,-99.99,,,0.00,weatherlink.com 1.10,2013-07-11 22:36:00,
2013-07-11 17:51:00,84.9,58.0,29.95,SW,231,3.0,-999.0,40,-99.99,,,0.00,weatherlink.com 1.10,2013-07-11 22:51:00,
2013-07-11 18:21:00,83.8,58.0,29.95,SSE,168,2.0,-999.0,41,-99.99,,,0.00,weatherlink.com 1.10,2013-07-11 23:21:00,
2013-07-11 18:36:00,82.2,58.0,29.95,SW,219,1.0,-999.0,44,-99.99,,,0.00,weatherlink.com 1.10,2013-07-11 23:36:00,
2013-07-11 19:07:00,80.3,58.0,29.95,South,175,1.0,-999.0,46,-99.99,,,0.00,weatherlink.com 1.10,2013-07-12 00:07:00,
2013-07-11 19:21:00,79.6,58.0,29.95,South,184,0.0,-999.0,48,-99.99,,,0.00,weatherlink.com 1.10,2013-07-12 00:21:00,
2013-07-11 19:36:00,78.8,58.0,29.94,South,184,0.0,-999.0,49,-99.99,,,0.00,weatherlink.com 1.10,2013-07-12 00:36:00,
2013-07-11 20:07:00,76.5,60.0,29.94,South,184,0.0,-999.0,56,-99.99,,,0.00,weatherlink.com 1.10,2013-07-12 01:07:00,
2013-07-11 20:21:00,75.3,60.0,29.94,South,184,0.0,-999.0,59,-99.99,,,0.00,weatherlink.com 1.10,2013-07-12 01:21:00,
2013-07-11 20:51:00,72.0,60.0,29.94,South,184,0.0,-999.0,66,-99.99,,,0.00,weatherlink.com 1.10,2013-07-12 01:51:00,
2013-07-11 21:07:00,70.1,59.0,29.94,South,184,0.0,-999.0,69,-99.99,,,0.00,weatherlink.com 1.10,2013-07-12 02:07:00,
2013-07-11 21:22:00,68.9,60.0,29.94,South,184,0.0,-999.0,72,-99.99,,,0.00,weatherlink.com 1.10,2013-07-12 02:22:00,
2013-07-11 21:37:00,67.9,59.0,29.94,South,184,0.0,-999.0,73,-99.99,,,0.00,weatherlink.com 1.10,2013-07-12 02:37:00,
2013-07-11 21:52:00,67.1,59.0,29.95,South,184,0.0,-999.0,76,-99.99,,,0.00,weatherlink.com 1.10,2013-07-12 02:52:00,
2013-07-11 22:07:00,66.4,59.0,29.95,South,184,0.0,-999.0,77,-99.99,,,0.00,weatherlink.com 1.10,2013-07-12 03:07:00,
2013-07-11 22:37:00,65.6,59.0,29.95,South,188,0.0,-999.0,80,-99.99,,,0.00,weatherlink.com 1.10,2013-07-12 03:37:00,
2013-07-11 23:07:00,65.5,60.0,29.95,South,188,0.0,-999.0,81,-99.99,,,0.00,weatherlink.com 1.10,2013-07-12 04:07:00,
2013-07-11 23:22:00,65.3,59.0,29.94,South,188,0.0,-999.0,81,-99.99,,,0.00,weatherlink.com 1.10,2013-07-12 04:22:00,
2013-07-11 23:37:00,65.0,59.0,29.95,South,188,0.0,-999.0,81,-99.99,,,0.00,weatherlink.com 1.10,2013-07-12 04:37:00,
2013-07-11 23:52:00,64.5,59.0,29.95,South,188,0.0,-999.0,82,-99.99,,,0.00,weatherlink.com 1.10,2013-07-12 04:52:00,